Lid_Strength_Index
-0 2 0 3 11 12 15 12 9 9 10 7 6 8 8 8 9 11 2 1 0 0 -0 -0 -1 -1 -1 -1 -1 -2 -2 -2 -2 -2 -2 -2 -2 -2 -2 -2 -2 -2 -2 -2 -2 -2 -2 -2 -2
2 1 2 6 14 17 15 10 10 9 8 7 6 7 8 10 5 5 3 1 -0 -0 -0 -0 -0 -1 -1 -1 -1 -2 -2 -2 -2 -1 -1 -2 -2 -2 -2 -2 -2 -2 -2 -2 -2 -2 -2 -2 -2
3 1 6 10 13 16 15 10 9 7 7 7 8 6 7 8 5 4 2 0 0 -0 -0 -0 -0 -1 -1 -1 -1 -2 -2 -2 -2 -2 -2 -2 -2 -2 -2 -2 -2 -2 -2 -2 -2 -2 -2 -2 -2
5 4 6 13 14 12 11 9 8 9 7 7 7 9 7 3 4 2 1 0 0 0 -0 -0 -0 -1 -1 -1 -2 -1 -1 -2 -2 -2 -2 -2 -2 -2 -2 -2 -2 -2 -2 -2 -2 -2 -2 -2 -2
5 6 12 14 13 12 9 7 7 8 7 7 6 10 9 4 2 1 1 1 1 0 -0 -0 -0 -1 -1 -1 -1 -1 -2 -1 -2 -2 -2 -2 -2 -2 -2 -2 -2 -2 -2 -2 -2 -2 -2 -2 -1
7 7 14 15 13 10 9 7 7 8 7 6 8 8 8 4 2 2 2 2 1 0 -0 -0 1 0 -0 -1 -1 -1 -2 -1 -1 -1 -2 -2 -2 -2 -2 -2 -2 -2 -2 -2 -2 -2 -2 -1 -1
9 10 13 13 13 11 9 6 8 8 7 7 5 9 7 4 2 2 2 2 0 -0 -0 -0 -0 0 1 0 -0 -1 -1 -1 -1 -1 -1 -1 -1 -1 -2 -2 -2 -2 -2 -2 -2 -2 -1 -1 -0
7 9 12 12 13 12 8 7 6 7 7 4 5 9 9 5 2 1 2 1 1 0 -0 -0 -0 -0 -0 -0 1 1 -0 -0 -1 -0 0 0 0 -0 -1 -1 -2 -2 -2 -2 -2 -1 -1 -0 -0
4 12 14 12 12 11 7 8 6 5 7 6 5 6 4 3 2 2 2 2 1 1 0 0 0 -0 -0 0 1 1 1 0 0 1 1 1 1 1 0 -1 -2 -2 -2 -2 -1 -0 -0 -0 0
8 12 12 9 9 9 8 8 7 8 8 8 7 4 3 3 3 4 4 4 3 2 1 0 0 -0 0 -0 0 0 1 0 1 1 1 1 2 1 1 1 -0 -1 -1 -1 -0 0 1 2 3
9 12 9 8 7 7 8 7 6 8 10 7 8 6 5 4 4 4 4 3 3 2 1 1 0 -0 -0 0 0 0 1 2 1 1 1 1 2 2 2 2 2 2 3 2 2 2 3 3 4
11 9 9 7 6 7 8 7 8 7 8 6 7 5 5 5 5 4 4 3 3 2 1 0 0 -0 0 0 1 1 1 1 1 1 1 2 2 2 3 3 3 3 4 4 3 3 3 3 3
11 10 9 7 7 7 7 8 8 7 5 5 5 4 5 5 4 3 3 2 2 2 1 1 0 0 0 1 1 1 1 0 0 1 1 2 2 3 2 3 3 4 4 4 4 3 3 3 3
9 9 10 9 9 8 9 8 8 7 5 6 6 5 5 5 4 4 3 3 3 2 2 1 1 0 0 0 1 0 1 1 1 1 1 1 2 2 2 2 2 3 4 3 3 3 3 4 3
8 10 10 10 9 9 7 11 10 6 6 6 6 5 5 5 4 4 3 3 3 2 2 3 1 1 0 0 1 -0 0 1 2 1 1 1 1 2 2 2 3 2 3 3 3 3 3 3 2
10 10 14 12 9 8 9 14 9 6 7 7 7 6 6 5 4 3 3 2 2 2 2 3 1 1 1 0 0 -0 -0 1 2 1 1 1 1 1 2 2 3 2 2 2 2 2 2 2 3
12 17 15 13 9 10 10 13 8 6 7 8 8 7 6 6 4 3 3 2 2 2 2 1 1 1 1 0 0 -0 0 1 1 1 1 1 1 1 1 2 2 1 1 1 1 1 1 2 3
17 15 13 13 9 11 12 12 9 7 8 8 9 7 6 6 5 5 3 2 2 2 1 1 1 1 1 1 1 1 0 1 1 1 1 1 1 1 1 0 1 1 1 1 1 1 1 2 3
11 12 14 12 9 11 12 12 10 8 8 9 9 7 7 7 7 6 7 4 2 2 2 1 1 1 1 2 2 2 2 1 1 1 0 0 1 1 0 0 0 1 1 1 1 1 2 2 2
11 13 14 11 9 11 12 12 10 9 11 9 8 8 7 8 9 9 9 9 8 2 2 2 1 1 1 1 2 2 2 2 0 0 0 0 0 0 -0 0 0 1 1 1 1 1 2 2 1
12 14 13 14 11 10 12 14 12 10 10 8 8 7 8 8 10 10 9 9 9 9 5 2 1 1 1 0 1 1 1 1 1 1 0 0 0 0 -0 0 1 1 1 1 1 1 2 2 2
15 12 12 13 15 18 12 19 14 12 11 10 10 10 10 11 11 11 11 11 10 11 9 7 5 3 2 0 1 2 2 3 2 1 1 0 0 0 0 0 0 1 1 1 1 1 1 2 3
12 9 12 12 14 15 15 18 15 11 14 13 13 13 12 12 12 12 12 11 11 11 10 9 7 7 6 4 1 1 2 1 1 2 1 1 0 0 0 0 1 1 1 1 1 1 2 2 3
9 12 12 13 15 20 16 17 17 14 12 14 14 14 13 13 13 13 12 12 13 11 11 10 9 9 7 6 5 4 3 3 3 3 2 1 1 1 1 1 1 1 1 1 1 1 2 2 1
11 14 19 20 20 21 15 17 17 14 11 13 15 15 15 13 14 14 13 13 13 13 12 12 11 11 10 8 8 7 7 6 5 5 4 3 3 4 4 3 3 4 4 4 3 3 4 5 5
13 14 19 23 22 20 16 19 17 13 13 13 14 15 16 16 14 14 14 13 13 13 13 12 12 12 11 11 11 9 9 9 9 9 7 8 6 7 5 6 6 7 6 6 7 7 8 8 8
14 16 12 16 18 19 18 17 14 13 14 15 15 16 16 16 16 15 14 14 14 13 13 13 12 13 12 12 12 11 11 11 11 11 11 10 9 8 9 8 8 8 8 8 9 10 10 10 10
11 11 16 16 22 23 19 18 18 16 14 14 15 15 15 15 16 15 15 14 14 13 13 13 13 13 13 13 13 13 13 12 12 12 12 12 11 10 10 10 10 10 10 10 10 11 11 12 12
14 15 14 15 17 20 21 19 14 14 14 13 12 13 14 14 15 15 15 15 14 13 14 14 13 13 13 13 13 14 14 13 13 14 13 13 13 12 12 12 12 11 11 12 12 13 13 14 14
11 13 14 17 19 17 18 19 14 14 15 14 12 12 13 13 14 14 14 14 14 14 14 14 14 14 14 14 14 14 15 14 15 14 14 14 14 13 13 13 14 14 14 14 14 15 14 15 15